FW5669 Weather Reports


time (UTC)temp
C
wind
direction
speed
KPH
gust
KPH
rain 1hr
cm
rain 24hr
cm
rain mn
cm
humidity
%
barometer
mb
20260904174502 16 21 1.6 12.9 0.00 0.86 0.38 85 1016.3
20260904173002 15 63 0.0 4.8 0.00 0.86 0.38 89 1016.1
20260904171501 14 85 0.0 4.8 0.00 0.86 0.38 89 1016.1
20260904170002 14 175 0.0 3.2 0.00 0.86 0.38 91 1015.9
20260904164604 14 33 0.0 4.8 0.00 0.86 0.38 90 1015.7
20260904163101 13 51 0.0 3.2 0.00 0.86 0.38 92 1015.7
20260904161600 13 304 0.0 4.8 0.00 0.86 0.38 93 1015.6
20260904160004 13 37 1.6 4.8 0.00 0.86 0.38 93 1015.6
20260904154502 13 160 0.0 4.8 0.00 0.86 0.38 94 1015.6
20260904153004 13 131 0.0 3.2 0.00 0.86 0.38 94 1015.4
20260904151502 13 57 0.0 3.2 0.00 0.86 0.38 94 1015.4
20260904150002 13 41 1.6 6.4 0.00 0.86 0.38 94 1015.2
20260904144601 13 79 0.0 1.6 0.03 0.86 0.38 94 1015.0
20260904143130 13 159 0.0 3.2 0.03 0.86 0.38 94 1014.6
20260904143001 13 159 0.0 3.2 0.03 0.86 0.38 94 1014.6
20260904141608 13 174 0.0 1.6 0.03 0.86 0.38 94 1014.4
20260904141501 13 195 0.0 1.6 0.03 0.86 0.38 94 1014.4
20260904140100 13 196 0.0 3.2 0.03 0.86 0.38 94 1014.3
20260904140001 13 213 0.0 3.2 0.03 0.86 0.38 94 1014.4
20260904134606 13 75 0.0 0.0 0.00 0.84 0.36 94 1014.2
20260904133101 13 75 0.0 0.0 0.00 0.84 0.36 94 1014.1
20260904131611 13 20 0.0 1.6 0.00 0.84 0.36 94 1014.0
20260904131501 13 20 0.0 1.6 0.00 0.84 0.36 94 1014.0
20260904130003 13 2 0.0 4.8 0.00 0.84 0.36 94 1013.9
20260904124603 13 103 0.0 3.2 0.00 0.84 0.36 94 1013.8
20260904123001 14 27 0.0 4.8 0.00 0.84 0.36 94 1013.7
20260904121601 13 46 0.0 0.0 0.00 0.84 0.36 94 1013.6
20260904120004 13 59 0.0 0.0 0.03 0.84 0.36 94 1013.6
20260904114502 13 62 0.0 1.6 0.03 0.84 0.36 94 1013.4
20260904113100 13 113 0.0 1.6 0.05 0.84 0.36 94 1013.4
20260904111603 13 189 0.0 0.0 0.08 0.84 0.36 93 1013.5
20260904110100 13 150 0.0 3.2 0.05 0.81 0.33 93 1013.4
20260904110001 13 150 0.0 3.2 0.05 0.81 0.33 93 1013.3
20260904104600 14 126 0.0 3.2 0.08 0.81 0.33 94 1013.1
20260904103101 15 121 0.0 3.2 0.05 0.79 0.30 94 1013.3
20260904103003 15 121 0.0 3.2 0.05 0.79 0.30 94 1013.2
20260904101501 15 170 0.0 4.8 0.05 0.76 0.28 94 1013.2
20260904100100 15 347 0.0 1.6 0.10 0.76 0.28 94 1013.1
20260904100003 15 347 0.0 1.6 0.13 0.76 0.28 94 1013.1
20260904094502 15 97 0.0 3.2 0.13 0.71 0.25 94 1012.9
20260904090002 15 164 0.0 3.2 0.10 0.64 0.15 94 1013.2
20260904084611 15 224 0.0 3.2 0.10 0.61 0.13 94 1013.3
20260904083102 15 117 0.0 4.8 0.05 0.56 0.08 94 1013.1
20260904081505 15 31 1.6 4.8 0.03 0.53 0.05 94 1013.1
20260904080002 15 99 0.0 1.6 0.05 0.53 0.05 94 1013.2
20260904074614 15 88 0.0 3.2 0.05 0.51 0.03 94 1013.2
20260904073003 15 131 0.0 3.2 0.05 0.51 0.03 94 1013.3
20260904071502 15 158 0.0 3.2 0.05 0.51 0.03 94 1013.3
20260904070104 15 124 0.0 3.2 0.05 0.48 0.00 94 1013.3
20260904064509 15 164 0.0 3.2 0.13 0.46 0.46 94 1013.3
20260904063008 15 156 0.0 1.6 0.20 0.46 0.46 93 1013.4
20260904061503 15 191 0.0 3.2 0.25 0.46 0.46 93 1013.4
20260904060002 15 160 0.0 3.2 0.30 0.43 0.43 93 1013.3
20260904054502 15 206 0.0 3.2 0.20 0.33 0.33 92 1013.4
20260904053006 16 189 0.0 3.2 0.15 0.25 0.25 93 1013.5
20260904051505 16 195 0.0 3.2 0.15 0.20 0.20 92 1013.6
20260904050006 16 44 0.0 1.6 0.10 0.13 0.13 92 1013.6
20260904044501 16 73 0.0 1.6 0.13 0.13 0.13 92 1013.6
20260904043003 16 178 0.0 1.6 0.10 0.10 0.10 91 1013.6
20260904041505 16 204 0.0 0.0 0.05 0.05 0.05 91 1013.6
20260904040003 16 204 0.0 0.0 0.03 0.03 0.03 90 1013.6
20260904034503 16 204 0.0 1.6 0.00 0.00 0.00 89 1013.5
20260904033003 16 204 0.0 0.0 0.00 0.00 0.00 87 1013.4
20260904031501 16 204 0.0 3.2 0.00 0.00 0.00 86 1013.4
20260904030003 17 215 0.0 3.2 0.00 0.00 0.00 83 1013.3
20260904024502 17 189 1.6 6.4 0.00 0.00 0.00 81 1013.4
20260904023002 17 182 0.0 3.2 0.00 0.00 0.00 80 1013.3
20260904021503 17 158 1.6 4.8 0.00 0.00 0.00 79 1013.4
20260904020106 18 160 0.0 4.8 0.00 0.00 0.00 76 1013.3
20260904014503 18 160 0.0 4.8 0.00 0.00 0.00 74 1013.3
20260904013002 18 222 1.6 4.8 0.00 0.00 0.00 73 1013.4
20260904011502 18 202 1.6 6.4 0.00 0.00 0.00 72 1013.5
20260904010009 19 181 1.6 4.8 0.00 0.00 0.00 71 1013.6
20260904004503 19 158 1.6 4.8 0.00 0.00 0.00 71 1013.6
20260904003002 19 239 1.6 4.8 0.00 0.00 0.00 71 1013.8
20260904001502 19 206 1.6 12.9 0.00 0.00 0.00 71 1013.7
20260904000003 19 92 1.6 4.8 0.00 0.00 0.00 70 1013.7
20260903234502 18 172 0.0 11.3 0.00 0.00 0.00 71 1013.9
20260903233003 19 152 0.0 4.8 0.00 0.00 0.00 71 1013.9
20260903231502 19 158 1.6 6.4 0.00 0.00 0.00 69 1014.0
20260903230004 19 160 1.6 6.4 0.00 0.00 0.00 69 1014.1
20260903224504 19 130 0.0 4.8 0.00 0.00 0.00 69 1014.4
20260903223002 19 145 1.6 4.8 0.00 0.00 0.00 69 1014.4
20260903221503 19 88 1.6 4.8 0.00 0.00 0.00 69 1014.6
20260903220008 19 166 1.6 8.0 0.00 0.00 0.00 69 1014.7
20260903214504 19 259 3.2 8.0 0.00 0.00 0.00 68 1014.9
20260903213002 19 208 1.6 6.4 0.00 0.00 0.00 67 1014.8
20260903211503 19 181 3.2 6.4 0.00 0.00 0.00 66 1014.9
20260903210003 20 162 1.6 6.4 0.00 0.00 0.00 66 1015.0
20260903204505 19 100 1.6 8.0 0.00 0.00 0.00 66 1015.0
20260903203003 19 175 1.6 8.0 0.00 0.00 0.00 66 1015.1
20260903201504 19 79 1.6 6.4 0.00 0.00 0.00 67 1015.2
20260903200002 19 178 3.2 6.4 0.00 0.00 0.00 66 1015.4
20260903194503 20 150 3.2 6.4 0.00 0.00 0.00 65 1015.6
20260903193003 19 197 3.2 9.7 0.00 0.00 0.00 64 1015.8
20260903191604 19 169 1.6 6.4 0.00 0.00 0.00 64 1015.7
20260903190002 18 187 1.6 6.4 0.00 0.00 0.00 63 1016.0
20260903184502 18 154 1.6 9.7 0.00 0.00 0.00 64 1016.1
20260903183003 18 65 1.6 11.3 0.00 0.00 0.00 63 1016.1
20260903181502 18 172 1.6 4.8 0.00 0.00 0.00 63 1016.1
20260903180003 18 211 1.6 4.8 0.00 0.00 0.00 63 1016.0